SCD 1 1 22490U 93009B 26034.15930759 .00000496 00000+0 84660-4 0 9998 2 22490 24.9703 315.0784 0042065 159.3262 343.5059 14.46045929741697 TECHSAT 1B (GO-32) 1 25397U 98043D 26034.25009873 .00000098 00000+0 62681-4 0 9992 2 25397 98.9980 23.6908 0000579 191.1281 168.9884 14.24395750432264 SCD 2 1 25504U 98060A 26033.73711117 .00000504 00000+0 89938-4 0 9990 2 25504 24.9936 181.2750 0016860 141.6893 241.1987 14.45459622440853 DLR-TUBSAT 1 25757U 99029B 26033.67991934 .00000147 00000+0 47999-4 0 9990 2 25757 98.6619 24.8120 0014994 42.6574 317.5782 14.52382289413723 TERRA 1 25994U 99068A 26034.33534931 .00000495 00000+0 11001-3 0 9990 2 25994 97.9664 89.0697 0001057 310.8495 114.4404 14.60975484390068 MAROC-TUBSAT 1 27004U 01056D 26034.32058080 -.00000023 00000+0 26671-4 0 9997 2 27004 99.7958 208.6954 0020477 124.6710 356.9210 13.70256150207855 AQUA 1 27424U 02022A 26034.26587281 .00001187 00000+0 24722-3 0 9995 2 27424 98.4114 1.0209 0001683 57.9140 46.1853 14.61887275263708 IRS-P6 (RESOURCESAT-1) 1 28051U 03046A 26034.31876451 .00000276 00000+0 10622-3 0 9997 2 28051 98.2109 77.2715 0064797 24.9726 35.9022 14.36096013161315 SHIYAN-1 (SY-1) 1 28220U 04012A 26034.14989782 .00015297 00000+0 53038-3 0 9999 2 28220 97.8843 103.8218 0006985 127.3059 232.8818 15.29898615190571 AURA 1 28376U 04026A 26034.25065197 .00001196 00000+0 25333-3 0 9993 2 28376 98.3256 349.7458 0001403 66.5153 293.6195 14.61071781146658 IRS-P5 (CARTOSAT-1) 1 28649U 05017A 26034.04548964 .00001442 00000+0 15254-3 0 9997 2 28649 97.5449 63.1347 0002353 113.4735 246.6732 14.90631839123831 SINAH 1 1 28893U 05043D 26034.30922201 .00000509 00000+0 10635-3 0 9997 2 28893 98.2635 168.0198 0014006 340.2183 19.8474 14.64032250 80930 EROS B 1 29079U 06014A 26034.34712737 .02314101 23740-5 15005-2 0 9993 2 29079 97.3237 159.5839 0013866 299.2805 60.7096 16.17127086 99127 RESURS-DK 1 1 29228U 06021A 26034.21468923 .00003233 00000+0 19120-3 0 9998 2 29228 69.9349 326.1858 0004985 209.7694 150.3189 15.12529959 82310 ARIRANG-2 (KOMPSAT-2) 1 29268U 06031A 26034.33214182 .00000462 00000+0 95364-4 0 9998 2 29268 97.8270 225.2467 0015266 134.4547 349.5426 14.64555281 41883 LAPAN-TUBSAT 1 29709U 07001A 26034.24469323 .00000315 00000+0 42826-4 0 9997 2 29709 98.1291 30.4974 0010774 262.1368 97.8624 14.85771946 31263 HAIYANG-1B 1 31113U 07010A 26033.68669594 .00000117 00000+0 60251-4 0 9990 2 31113 98.3375 20.8355 0012436 237.8243 122.1735 14.30987190981397 COSMO-SKYMED 1 1 31598U 07023A 26034.29397334 .00003576 00000+0 32197-3 0 9998 2 31598 97.8857 225.0591 0001302 76.7834 283.3532 14.96257092 9760 TERRASAR-X 1 31698U 07026A 26033.55695199 .00001333 00000+0 66674-4 0 9997 2 31698 97.4465 43.1826 0001908 97.0628 263.0824 15.19155201 32783 WORLDVIEW-1 (WV-1) 1 32060U 07041A 26034.23580880 .00009285 00000+0 38744-3 0 9994 2 32060 97.3809 155.9357 0001014 278.2750 81.8372 15.23883546 22470 YAOGAN-3 1 32289U 07055A 26034.33168399 .00003558 00000+0 37302-3 0 9996 2 32289 97.8310 65.4792 0001587 99.8898 260.2499 14.90178642985926 COSMO-SKYMED 2 1 32376U 07059A 26034.28764906 .00001322 00000+0 17256-3 0 9990 2 32376 97.8838 219.8262 0001563 83.3021 276.8370 14.82148484982161 RADARSAT-2 1 32382U 07061A 26034.32344319 .00000277 00000+0 12449-3 0 9994 2 32382 98.5800 43.1521 0001136 84.5682 275.5630 14.29981779946824 CARTOSAT-2A 1 32783U 08021A 26034.30658703 .00001108 00000+0 15653-3 0 9993 2 32783 97.7848 87.4686 0011664 179.9236 180.1979 14.79034231959015 HUANJING 1A (HJ-1A) 1 33320U 08041A 26034.30701385 .00001427 00000+0 17887-3 0 9993 2 33320 97.6580 25.4312 0017995 214.8720 145.1317 14.83600033938550 HUANJING 1B (HJ-1B) 1 33321U 08041B 26034.28625740 .00002260 00000+0 28145-3 0 9996 2 33321 97.6434 28.9686 0034926 263.0249 96.6992 14.83009477938561 GEOEYE 1 1 33331U 08042A 26034.25732366 .00000611 00000+0 12361-3 0 9999 2 33331 98.1273 109.8789 0004872 111.9835 248.1886 14.64720500930543 THEOS 1 33396U 08049A 26034.31321075 -.00000002 00000+0 18881-4 0 9994 2 33396 98.5781 95.8317 0001167 82.7339 277.3971 14.20109735898962 COSMO-SKYMED 3 1 33412U 08054A 26034.23775105 .00002704 00000+0 18992-3 0 9999 2 33412 97.8438 250.5271 0016416 6.0166 354.1255 15.05915811936776 YAOGAN-4 1 33446U 08061A 26034.23995126 .00001299 00000+0 16665-3 0 9994 2 33446 97.9226 328.8433 0015166 142.2137 218.0145 14.82871063925813 GOSAT (IBUKI) 1 33492U 09002A 26034.22891179 .00001014 00000+0 18731-3 0 9994 2 33492 98.0760 147.1023 0001518 97.1044 263.0334 14.67548151911814 DEIMOS-1 1 35681U 09041A 26034.28857456 .00001110 00000+0 17182-3 0 9991 2 35681 97.7189 197.4632 0000099 89.0100 271.1122 14.75055956887145 DUBAISAT-1 1 35682U 09041B 26034.24375994 .00001648 00000+0 25350-3 0 9992 2 35682 97.9826 169.1672 0011331 136.4383 223.7723 14.74796103885353 OCEANSAT-2 1 35931U 09051A 26034.30524273 -.00000149 00000+0 -76197-4 0 9996 2 35931 98.2262 34.5836 0015578 254.6524 105.2921 13.99641931860601 WORLDVIEW-2 (WV-2) 1 35946U 09055A 26034.28105881 .00000181 00000+0 74629-4 0 9995 2 35946 98.4733 109.6323 0002974 257.8033 102.2821 14.37824535856408 SMOS 1 36036U 09059A 26034.13116732 .00000369 00000+0 13159-3 0 9999 2 36036 98.4404 223.4095 0001261 87.9421 272.1911 14.39730955854168 YAOGAN-7 1 36110U 09069A 26034.23971597 .00000758 00000+0 11224-3 0 9995 2 36110 98.0262 280.8003 0025950 109.9971 250.4037 14.77829356869846 TANDEM-X 1 36605U 10030A 26033.62282087 .00001421 00000+0 70834-4 0 9996 2 36605 97.4455 43.2472 0001825 81.3424 278.8017 15.19155839866219 CARTOSAT-2B 1 36795U 10035A 26034.28664065 .00000606 00000+0 89376-4 0 9999 2 36795 97.7774 86.5884 0010356 266.3554 93.6473 14.78727996840068 YAOGAN-10 1 36834U 10038A 26034.34021014 .00002350 00000+0 28274-3 0 9991 2 36834 97.9101 58.7664 0001325 95.2062 320.8477 14.84863906837349 COSMO-SKYMED 4 1 37216U 10060A 26034.30027287 .00000157 00000+0 26331-4 0 9991 2 37216 97.8824 219.8384 0001169 84.2656 275.8690 14.82106396824733 RESOURCESAT-2 1 37387U 11015A 26034.29199783 .00000290 00000+0 15288-3 0 9996 2 37387 98.7787 102.5842 0004938 238.2036 121.8661 14.21461688767158 HAIYANG-2A 1 37781U 11043A 26034.31377998 .00000330 00000+0 36770-3 0 9998 2 37781 99.3390 39.4429 0000801 15.0442 345.0733 13.78788838728235 RASAT 1 37791U 11044D 26034.31439936 .00000898 00000+0 16485-3 0 9991 2 37791 98.0604 127.7848 0019377 256.1951 144.8804 14.68004050773542 SRMSAT 1 37841U 11058D 26033.71249579 .00000441 00000+0 95475-4 0 9998 2 37841 19.9706 153.3990 0011658 163.8935 340.6361 14.11533774738796 PLEIADES 1A 1 38012U 11076F 26034.28962557 .00000422 00000+0 10059-3 0 9993 2 38012 98.1747 111.2286 0001207 106.5250 345.3405 14.58568521752476 ZIYUAN 1-02C (ZY 1-02C) 1 38038U 11079A 26034.28988701 .00000449 00000+0 16234-3 0 9993 2 38038 98.4250 104.3173 0006283 358.9313 87.2176 14.38085097739962 ARIRANG-3 (KOMPSAT-3) 1 38338U 12025B 26034.24376686 .00000787 00000+0 16658-3 0 9992 2 38338 98.1900 354.0014 0006258 161.1839 198.9594 14.61953674731777 EXACTVIEW-1 (ADS-1B) 1 38709U 12039C 26034.26726386 .00000178 00000+0 95800-4 0 9998 2 38709 98.9626 148.7592 0010739 192.4099 167.6817 14.24935598703634 SPOT 6 1 38755U 12047A 26034.28640506 .00000274 00000+0 68628-4 0 9994 2 38755 98.1491 103.0814 0001127 97.6836 262.4491 14.58606896713539 PLEIADES 1B 1 39019U 12068A 26034.30621451 .00000343 00000+0 83641-4 0 9991 2 39019 98.2085 111.1369 0001318 105.0304 255.1041 14.58551940701338 GOKTURK 2 1 39030U 12073A 26034.27917413 .00000792 00000+0 12366-3 0 9995 2 39030 97.6883 238.3494 0002041 72.7756 287.3677 14.75384407704769 LANDSAT 8 1 39084U 13008A 26034.25708856 .00000443 00000+0 10838-3 0 9995 2 39084 98.1988 106.5346 0001290 93.9511 266.1835 14.57113416678391 SARAL 1 39086U 13009A 26034.31330691 .00000131 00000+0 64115-4 0 9995 2 39086 98.5526 222.5623 0001511 359.0892 1.0289 14.32780276676435 GAOFEN-1 1 39150U 13018A 26034.28979093 .00000701 00000+0 10769-3 0 9996 2 39150 97.9248 108.9993 0016808 342.4082 17.6544 14.76543906688480 VNREDSAT 1 1 39160U 13021B 26034.28224118 .00000866 00000+0 17006-3 0 9995 2 39160 97.9290 92.6977 0001378 98.4832 261.6528 14.65022097680684 ARIRANG-5 (KOMPSAT-5) 1 39227U 13042A 26034.28484417 .00001550 00000+0 11508-3 0 9994 2 39227 97.6157 222.8457 0001590 216.6824 143.4294 15.04483687683723 SKYSAT-A 1 39418U 13066C 26034.09475225 .00004061 00000+0 23821-3 0 9999 2 39418 97.4021 87.7051 0023124 60.2548 300.0979 15.12077047668210 DUBAISAT-2 1 39419U 13066D 26034.24513858 .00007705 00000+0 49059-3 0 9991 2 39419 97.4494 28.0670 0012831 127.2581 232.9820 15.08971066666185 GPM-CORE 1 39574U 14009C 26034.25817924 .00009398 00000+0 20539-3 0 9995 2 39574 64.9738 36.7438 0010092 249.3894 110.6164 15.44656611677120 SENTINEL-1A 1 39634U 14016A 26034.31038586 .00000361 00000+0 86206-4 0 9991 2 39634 98.1804 43.7776 0001305 85.7211 274.4138 14.59202410630493 KAZEOSAT 1 1 39731U 14024A 26034.24583052 .00000251 00000+0 89476-4 0 9993 2 39731 98.3356 109.9555 0001024 91.7869 268.3438 14.42064076619251 ALOS-2 1 39766U 14029A 26034.29377543 .00000271 00000+0 43122-4 0 9997 2 39766 97.9227 133.3862 0001405 98.9007 261.2364 14.79471860631784 KAZEOSAT 2 1 40010U 14033A 26034.30976749 .00000468 00000+0 60328-4 0 9996 2 40010 97.5489 240.9093 0009795 47.2456 312.9582 14.85274115629087 HODOYOSHI-4 1 40011U 14033B 26034.27682800 .00001925 00000+0 21577-3 0 9996 2 40011 97.5421 225.5812 0024588 32.2890 327.9826 14.87713338628897 DEIMOS-2 1 40013U 14033D 26034.25466638 .00002928 00000+0 28507-3 0 9999 2 40013 97.6023 273.3218 0002053 70.9102 289.2340 14.93252345617732 HODOYOSHI-3 1 40015U 14033F 26034.04856932 .00001329 00000+0 16022-3 0 9991 2 40015 97.6241 202.6278 0034419 77.1269 283.3788 14.85028517627714 SPOT 7 1 40053U 14034A 26034.27962936 .00000439 00000+0 99239-4 0 9994 2 40053 98.0823 100.1259 0001049 83.0642 277.0679 14.60817291617583 SKYSAT-B 1 40072U 14037D 26033.82117847 .00002009 00000+0 22791-3 0 9994 2 40072 98.3679 345.3048 0005779 8.9292 351.2024 14.87573902625985 WORLDVIEW-3 (WV-3) 1 40115U 14048A 26034.27147529 .00000245 00000+0 35214-4 0 9999 2 40115 97.8698 110.9092 0002366 62.2195 297.9259 14.84748897622030 GAOFEN-2 1 40118U 14049A 26034.31735978 .00000377 00000+0 56031-4 0 9995 2 40118 98.0300 98.5588 0006450 314.9026 45.1662 14.80712931619421 YAOGAN-21 1 40143U 14053A 26034.27515448 .00009262 00000+0 38020-3 0 9990 2 40143 97.1677 80.3064 0007761 196.5373 163.5613 15.24399714634549 YAOGAN-22 1 40275U 14063A 26034.25959331 -.00000045 00000+0 35895-5 0 9998 2 40275 100.7473 183.4312 0006780 130.2305 229.9400 13.15525415542200 ASNARO 1 40298U 14070A 26034.28555530 .00015756 00000+0 74608-3 0 9994 2 40298 97.3581 113.9340 0004389 251.1087 108.9672 15.19412490623670 YAOGAN-24 1 40310U 14072A 26034.27714646 .00001225 00000+0 18478-3 0 9994 2 40310 98.1255 170.6606 0012704 338.2301 21.8367 14.76153097603964 CBERS 4 1 40336U 14079A 26034.27962436 .00000222 00000+0 91807-4 0 9995 2 40336 98.3224 95.4782 0001257 51.9932 308.1368 14.35505978584749 YAOGAN-26 1 40362U 14088A 26034.28780302 .00030252 00000+0 71874-3 0 9992 2 40362 97.0647 38.1725 0005614 149.5021 210.6554 15.41609028617030 SMAP 1 40376U 15003A 26034.26754767 .00000625 00000+0 12994-3 0 9998 2 40376 98.1302 43.2404 0001437 90.7392 269.3975 14.63429724588034 KOMPSAT-3A 1 40536U 15014A 26034.26494866 .00031706 00000+0 58380-3 0 9992 2 40536 97.6829 16.6148 0063740 305.8016 53.7319 15.46834014601067 SENTINEL-2A 1 40697U 15028A 26034.29169001 .00000056 00000+0 37907-4 0 9995 2 40697 98.5639 111.0970 0001072 97.1522 262.9783 14.30818911554583 GAOFEN-8 1 40701U 15030A 26034.28257049 .00019147 00000+0 46667-3 0 9996 2 40701 97.6910 220.0733 0009659 318.7914 41.2601 15.40907180590794 CARBONITE 1 (CBNT-1) 1 40718U 15032D 26034.28117005 .00001304 00000+0 16628-3 0 9993 2 40718 97.6423 218.0283 0015085 19.0206 341.1569 14.83045238569494 YAOGAN-27 1 40878U 15040A 26034.30771052 .00000068 00000+0 29107-3 0 9992 2 40878 100.1055 26.5612 0008348 159.2817 200.8636 13.16064878500058 GAOFEN-9 01 1 40894U 15047A 26034.30968924 .00001290 00000+0 16566-3 0 9996 2 40894 97.6474 75.9824 0026591 216.9262 143.0123 14.82589657560358 YAOGAN-28 1 41026U 15064A 26034.26794497 .00011530 00000+0 45897-3 0 9997 2 41026 97.2847 175.6259 0010165 308.7316 51.3013 15.25361076570256 YAOGAN-29 1 41038U 15069A 26034.31573775 .00001155 00000+0 14897-3 0 9993 2 41038 98.0176 62.6481 0002922 93.8228 266.3320 14.82957376550782 KENT RIDGE 1 1 41167U 15077B 26034.13969399 .00005083 00000+0 18291-3 0 9992 2 41167 14.9782 182.1948 0008741 149.0561 211.0276 15.22135819560637 GAOFEN-4 1 41194U 15083A 26034.29461644 -.00000343 00000+0 00000+0 0 9996 2 41194 0.3042 83.5210 0003261 90.3329 171.3620 1.00271109 37187 JASON-3 1 41240U 16002A 26034.33273652 -.00000036 00000+0 10532-3 0 9999 2 41240 66.0415 47.2517 0007954 274.7613 85.2497 12.87627135470015 SENTINEL-3A 1 41335U 16011A 26034.26842881 .00000146 00000+0 78515-4 0 9999 2 41335 98.6300 103.5443 0001095 105.6041 254.5261 14.26733158518960 ZIYUAN 3-02 (ZY 3-02) 1 41556U 16033A 26034.14203448 .00007747 00000+0 34565-3 0 9995 2 41556 97.3967 112.4187 0011552 66.4590 293.7858 15.21601525537603 CARTOSAT-2C 1 41599U 16040A 26034.29014639 .00003390 00000+0 16373-3 0 9995 2 41599 97.4682 95.9778 0009231 241.2340 118.7968 15.19301865533383 SKYSAT-C1 1 41601U 16040C 26034.06582025 .00010179 00000+0 31383-3 0 9994 2 41601 96.9752 73.1481 0003953 121.7417 238.4213 15.33763566537293 LAPAN-A3 1 41603U 16040E 26034.28154854 .00004414 00000+0 14470-3 0 9998 2 41603 97.1453 34.9519 0012027 129.0421 231.1894 15.32063443534301 GAOFEN-3 1 41727U 16049A 26034.32327707 .00000362 00000+0 12294-3 0 9998 2 41727 98.4039 44.1104 0000974 112.1924 247.9369 14.42231248499351 SKYSAT-C4 1 41771U 16058B 26034.32267797 .00017532 00000+0 38439-3 0 9995 2 41771 96.9321 62.0018 0003009 68.3278 291.8292 15.44126640524787 SKYSAT-C5 1 41772U 16058C 26034.05856519 .00010210 00000+0 30796-3 0 9996 2 41772 97.0678 80.6121 0005928 114.5342 245.6520 15.34453675523188 SKYSAT-C2 1 41773U 16058D 26034.05743782 .00012462 00000+0 32735-3 0 9990 2 41773 97.0311 61.4025 0004085 147.4974 212.6525 15.38733920524405 SKYSAT-C3 1 41774U 16058E 26034.09261517 .00019399 00000+0 38915-3 0 9998 2 41774 96.9224 70.4594 0002152 80.7998 279.3497 15.46724266525340 ALSAT-1B 1 41785U 16059C 26034.27923245 .00000803 00000+0 13489-3 0 9993 2 41785 97.7800 48.8017 0008123 302.9352 57.1074 14.72148328500878 PATHFINDER 1 1 41787U 16059E 26034.22887617 .00001003 00000+0 18446-3 0 9993 2 41787 97.8156 39.5759 0027087 273.7341 86.0767 14.67448993500064 SCATSAT 1 1 41790U 16059H 26034.15494955 .00001492 00000+0 20407-3 0 9990 2 41790 98.1377 96.4649 0054152 320.9947 38.7363 14.79143988 81774 GOKTURK 1A 1 41875U 16073A 26034.24255356 .00000722 00000+0 15068-3 0 9992 2 41875 98.1411 290.9002 0001311 80.0653 280.0697 14.62787859489247 RESOURCESAT-2A 1 41877U 16074A 26034.27365789 .00000067 00000+0 50848-4 0 9998 2 41877 98.7676 108.8051 0003135 105.4917 254.6606 14.21605232475274 CARTOSAT-2D 1 41948U 17008A 26034.25832503 .00004850 00000+0 23290-3 0 9990 2 41948 97.4302 95.9331 0004950 355.1524 4.9662 15.19304473497246 SENTINEL-2B 1 42063U 17013A 26034.29136679 .00000084 00000+0 48569-4 0 9992 2 42063 98.5639 110.9821 0001068 90.5388 269.5917 14.30818082465499 CARTOSAT-2E 1 42767U 17036C 26034.27497137 .00003771 00000+0 18168-3 0 9992 2 42767 97.4472 96.1534 0003980 56.3473 303.8141 15.19338014477819 FORMOSAT-5 1 42920U 17049A 26034.25784497 .00000251 00000+0 74813-4 0 9993 2 42920 98.2374 112.4991 0011896 132.6145 227.6055 14.50800971447250 SENTINEL-5P 1 42969U 17064A 26033.43271184 .00000073 00000+0 55407-4 0 9996 2 42969 98.7841 336.5746 0001173 85.3103 274.8207 14.19539635430446 SKYSAT-C11 1 42987U 17068A 26033.62600336 .00027594 00000+0 48867-3 0 9994 2 42987 97.4171 177.5156 0000734 78.4756 281.6578 15.50255325462343 SKYSAT-C10 1 42988U 17068B 26033.33765055 .00011546 00000+0 37689-3 0 9993 2 42988 97.4290 169.3147 0001956 97.1048 263.0416 15.31928328461695 SKYSAT-C9 1 42989U 17068C 26033.65108941 .00016666 00000+0 45159-3 0 9993 2 42989 97.4215 169.3822 0008260 260.1711 99.8601 15.37694012462055 SKYSAT-C8 1 42990U 17068D 26033.63477273 .00013972 00000+0 42183-3 0 9991 2 42990 97.4308 168.9220 0002851 118.8074 241.3456 15.34373158461668 SKYSAT-C7 1 42991U 17068E 26033.61673738 .00013541 00000+0 41722-3 0 9994 2 42991 97.4320 169.9014 0005750 219.6306 140.4517 15.33724909461721 SKYSAT-C6 1 42992U 17068F 26033.83229996 .00011788 00000+0 38279-3 0 9996 2 42992 97.4351 170.4847 0001642 182.8497 177.2735 15.32092851461739 CARTOSAT-2F 1 43111U 18004A 26034.30744399 .00006177 00000+0 29619-3 0 9997 2 43111 97.4233 96.0720 0001816 21.2405 338.8905 15.19255725447007 GAOFEN-1 02 1 43259U 18031A 26034.04421481 .00000604 00000+0 94189-4 0 9999 2 43259 98.0724 96.8309 0004038 72.7281 287.4370 14.76485100422906 GAOFEN-1 03 1 43260U 18031B 26034.29354052 .00001002 00000+0 15148-3 0 9997 2 43260 98.0710 96.9515 0003952 128.8198 231.3365 14.76432229422936 GAOFEN-1 04 1 43262U 18031D 26034.33703407 .00001259 00000+0 18837-3 0 9998 2 43262 98.0724 97.1705 0001685 115.9137 244.2246 14.76449067422937 SENTINEL-3B 1 43437U 18039A 26034.10129887 .00000123 00000+0 68812-4 0 9997 2 43437 98.6303 103.5262 0000685 63.5254 296.5996 14.26733028405006 GAOFEN-5 01 1 43461U 18043A 26033.51260683 .00000498 00000+0 11282-3 0 9996 2 43461 98.4401 2.4075 0002759 116.2842 243.8641 14.60480884412032 GAOFEN-6 1 43484U 18048A 26034.30354096 .00000903 00000+0 13634-3 0 9990 2 43484 97.7949 101.7852 0010886 247.2135 112.7926 14.76595020413635 GAOFEN-11 01 1 43585U 18063A 26034.30164852 .00024893 00000+0 42836-3 0 9998 2 43585 97.1476 101.8346 0006168 107.0019 253.1910 15.51065252419561 ICESAT-2 1 43613U 18070A 26034.25046234 .00003232 00000+0 11729-3 0 9996 2 43613 92.0005 254.8984 0000955 24.8207 335.3088 15.28279491412002 HYSIS 1 43719U 18096A 26034.29161080 .00001719 00000+0 24161-3 0 9994 2 43719 98.0017 101.9905 0001033 130.9642 229.1659 14.78665260387634 KAZSTSAT 1 43783U 18099AB 26034.05436488 .00002072 00000+0 17314-3 0 9994 2 43783 97.4484 71.9600 0009669 118.1729 242.0473 14.99531118391204 SAUDISAT 5A 1 43831U 18102A 26034.31360081 .00007135 00000+0 27625-3 0 9998 2 43831 97.3263 98.4938 0008576 244.2799 115.7555 15.26449633395240 SAUDISAT 5B 1 43833U 18102C 26034.29251222 .00006515 00000+0 25001-3 0 9990 2 43833 97.3359 101.3048 0009288 247.6472 112.3783 15.26771743395358 GAOFEN-10R 1 44622U 19066A 26034.28985625 .00001868 00000+0 23648-3 0 9998 2 44622 98.0347 347.0291 0005798 212.9940 147.0912 14.83021968342536 CARTOSAT-3 1 44804U 19081A 26034.25617870 .00004992 00000+0 23964-3 0 9990 2 44804 97.4494 98.1500 0012357 262.4929 97.4902 15.19254069343131 GAOFEN-12 01 1 44819U 19082A 26034.31818969 .00000591 00000+0 83360-4 0 9994 2 44819 97.8133 44.2239 0004072 84.1843 275.9834 14.80735379334289 CSG-1 1 44873U 19092A 26034.24546388 .00000658 00000+0 89232-4 0 9998 2 44873 97.8840 219.7855 0001223 86.6737 273.4616 14.82162220331639 NEMO-HD 1 46277U 20061F 26034.29311156 .00011993 00000+0 28631-3 0 9993 2 46277 97.2119 97.7438 0002122 120.3591 239.7867 15.41672436301334 SENTINEL-6A 1 46984U 20086A 26034.26334896 -.00000047 00000+0 59482-4 0 9996 2 46984 66.0410 53.2150 0007886 270.2238 89.7873 12.80929341243177 GAOFEN-12 02 1 48079U 21026A 26034.31523973 .00000617 00000+0 86988-4 0 9993 2 48079 97.9889 33.0815 0001202 334.6474 25.4678 14.80755804261953 PLEIADES NEO 3 1 48268U 21034A 26034.33626619 -.00000357 00000+0 -38748-4 0 9999 2 48268 97.8940 111.0241 0001275 90.3611 269.7748 14.81672202257833 PLEIADES NEO 4 1 49070U 21073E 26033.62716365 .00000568 00000+0 78774-4 0 9998 2 49070 97.8941 110.3208 0001285 93.0730 267.0630 14.81674405241442 LANDSAT 9 1 49260U 21088A 26034.22288970 .00000454 00000+0 11075-3 0 9992 2 49260 98.2009 106.5523 0001306 92.6588 267.4760 14.57110244231491 CSG-2 1 51444U 22008A 26034.27923138 .00000860 00000+0 11457-3 0 9994 2 51444 97.8823 219.8167 0001491 79.0305 281.1075 14.82160445216750 GAOFEN-12 03 1 52912U 22069A 26034.24742485 .00001366 00000+0 18838-3 0 9995 2 52912 97.8460 285.3802 0000881 116.6253 243.5050 14.79766104194800 SWOT 1 54754U 22173A 26034.22589412 .00000042 00000+0 30118-4 0 9990 2 54754 77.6081 216.1380 0000483 2.4009 357.7145 14.00171888160408 GAOFEN-12 04 1 57654U 23123A 26034.27930022 .00001537 00000+0 21050-3 0 9994 2 57654 97.9135 314.2502 0001606 91.2739 268.8657 14.79894236132825 PARS 1 1 59065U 24039Q 26034.30761736 .00014329 00000+0 33258-3 0 9993 2 59065 97.4700 11.4300 0008190 230.7100 129.3422 15.42456225107988 RESURS-P 4 1 59371U 24061A 26034.27577003 .00004804 00000+0 15504-3 0 9997 2 59371 97.2613 344.5670 0003034 103.0049 257.1533 15.32602360103256 LEGION 1 1 59625U 24081A 26034.24464045 .00005506 00000+0 28088-3 0 9990 2 59625 97.5135 113.4377 0006209 116.8682 243.3186 15.17128467 97234 LEGION 2 1 59626U 24081B 26034.27710826 .00005674 00000+0 28909-3 0 9993 2 59626 97.5140 113.5604 0008344 104.2940 255.9220 15.17150085 97245 ALOS-4 (DAICHI-4) 1 60182U 24123A 26032.82517912 .00001936 00000+0 26596-3 0 9996 2 60182 97.9224 131.9413 0001426 102.2341 257.9031 14.79477563 85867 LEGION 3 1 60452U 24146A 26034.27929351 .00005373 00000+0 29015-3 0 9994 2 60452 45.0021 28.4357 0011361 132.3567 227.8275 15.15745398 81706 LEGION 4 1 60453U 24146B 26034.27826293 .00005592 00000+0 30108-3 0 9994 2 60453 45.0025 120.2953 0012361 266.6249 93.3216 15.15773070 80554 SENTINEL-2C 1 60989U 24157A 26034.18652638 .00000148 00000+0 73045-4 0 9990 2 60989 98.5683 110.8992 0001107 77.8642 282.2665 14.30811489 73826 IONOSFERA-M 1 1 61735U 24199A 26034.29204436 .00000072 00000+0 51986-4 0 9993 2 61735 98.7369 268.7266 0001563 126.0020 234.1303 14.22728220108666 IONOSFERA-M 2 1 61736U 24199B 26034.25627670 .00000072 00000+0 51985-4 0 9998 2 61736 98.7367 268.6030 0001317 43.9562 316.1721 14.22730546111784 BIOMASS 1 63772U 25090A 26034.11869042 .00000448 00000+0 88496-4 0 9991 2 63772 98.0721 223.3668 0001263 90.3494 269.7855 14.66973144 41029 GOSAT-GW (IBUKI GW) 1 64694U 25141A 26034.28192360 .00001159 00000+0 21273-3 0 9991 2 64694 98.0474 333.8560 0001547 85.2772 274.8610 14.67557809 32206 IONOSFERA-M 3 1 64876U 25155A 26034.29480255 .00000083 00000+0 57368-4 0 9992 2 64876 98.5860 359.6941 0000436 189.9844 170.1325 14.21457355 27388 IONOSFERA-M 4 1 64877U 25155B 26034.25943317 .00000072 00000+0 52639-4 0 9996 2 64877 98.5858 359.5786 0000632 118.8637 241.2604 14.21458801 27377 MICROCARB 1 64899U 25156A 26034.19206398 .00000714 00000+0 12104-3 0 9990 2 64899 97.9948 113.6809 0015864 345.0357 15.0379 14.72161536 28251 CO3D 3 1 64900U 25156B 26034.30408588 .00007184 00000+0 33463-3 0 9990 2 64900 97.4337 114.9182 0000583 295.4739 64.6435 15.20207215 29199 CO3D 4 1 64901U 25156C 26032.52702288 .00001399 00000+0 67710-4 0 9992 2 64901 97.4338 113.1664 0001358 51.6821 308.4536 15.20208336 28928 CO3D 2 1 64902U 25156D 26034.27089330 .00011344 00000+0 52638-3 0 9996 2 64902 97.4340 114.7843 0000164 209.9065 150.2161 15.20201492 29182 CO3D 1 1 64903U 25156E 26034.27104310 .00006805 00000+0 31727-3 0 9995 2 64903 97.4338 114.7840 0000290 317.0110 43.1102 15.20194219 29182 SENTINEL-6B 1 66514U 25264A 26034.26370024 -.00000049 00000+0 53921-4 0 9997 2 66514 66.0410 53.3405 0008064 270.3909 89.6182 12.80930301 10012 CSG-3 1 67304U 26001A 26034.32565510 .00004277 00000+0 54345-3 0 9994 2 67304 97.8813 219.8644 0001304 90.3621 269.7741 14.82155278 4633